This is the latest recevied weather packets stored in our database for station/object G0TGD-10. If no packets are shown the sender has not sent any weather packets the latest 10 day(s).
| Time | Temp. | Humidity | Pressure | Rain* | Wind** | Luminosity | Snow |
|---|---|---|---|---|---|---|---|
| 1777568734 | 20° C | 32% | 1020.9 hPa | - | - | - | - |
| 1777567834 | 20° C | 30% | 1020.8 hPa | - | - | - | - |
| 1777566933 | 20.56° C | 28% | 1020.8 hPa | - | - | - | - |
| 1777566033 | 21.11° C | 29% | 1020.8 hPa | - | - | - | - |
| 1777565133 | 21.11° C | 28% | 1020.8 hPa | - | - | - | - |
| 1777564233 | 21.11° C | 28% | 1020.9 hPa | - | - | - | - |
| 1777563333 | 21.67° C | 28% | 1020.9 hPa | - | - | - | - |
| 1777562433 | 21.67° C | 28% | 1021 hPa | - | - | - | - |
| 1777561533 | 22.78° C | 28% | 1021.2 hPa | - | - | - | - |
| 1777560633 | 23.33° C | 28% | 1021.2 hPa | - | - | - | - |
| 1777559733 | 23.89° C | 28% | 1021.5 hPa | - | - | - | - |
| 1777558833 | 24.44° C | 28% | 1021.7 hPa | - | - | - | - |
| 1777557933 | 25.56° C | 28% | 1021.6 hPa | - | - | - | - |
| 1777557032 | 25° C | 28% | 1021.9 hPa | - | - | - | - |
| 1777556132 | 25.56° C | 28% | 1022 hPa | - | - | - | - |
| 1777555232 | 26.11° C | 27% | 1022.1 hPa | - | - | - | - |
| 1777554332 | 27.22° C | 29% | 1022.3 hPa | - | - | - | - |
| 1777553432 | 26.11° C | 28% | 1022.3 hPa | - | - | - | - |
| 1777552532 | 26.11° C | 30% | 1022.3 hPa | - | - | - | - |
| 1777551632 | 25.56° C | 31% | 1022.5 hPa | - | - | - | - |
| 1777550732 | 25.56° C | 34% | 1022.6 hPa | - | - | - | - |
| 1777549832 | 25.56° C | 35% | 1022.8 hPa | - | - | - | - |
| 1777548931 | 25° C | 35% | 1023 hPa | - | - | - | - |
| 1777548031 | 23.89° C | 36% | 1023.1 hPa | - | - | - | - |
| 1777547131 | 23.89° C | 36% | 1023.2 hPa | - | - | - | - |
* Rain since midnight (hover to see other rain measurements)
** Current wind speed in m/s (hover to see current wind gust speed)